Regional Weather Roundup
Issued by NWS Wakefield, VA

Home | Current Version | Previous Version | Graphics & Text | Print | Product List | Glossary On
Versions: 1 2 3 4 5 6 7 8 9 10 11 12 13 14 15 16 17 18 19 20 21 22 23 24 25 26 27 28 29 30 31 32 33 34 35 36 37 38 39 40 41 42 43 44 45 46 47 48 49 50
000
ASUS41 KAKQ 231815
RWRAKQ

REGIONAL WEATHER ROUNDUP
NATIONAL WEATHER SERVICE WAKEFIELD VA
200 PM EDT MON OCT 23 2017

Note: "fair" indicates few or no clouds below 12,000 feet with no
significant weather and/or obstructions to visibility. * = Denotes
station may not report precipitation (e.g., rain,snow,etc.),
thunder or fog.

VAZ042-051-052>054-056-231900-
NORTHERN VIRGINIA

CITY           SKY/WX    TMP DP  RH WIND       PRES   REMARKS
WASH NATIONAL  CLOUDY    76  62  62 SE16      30.06F
DULLES         CLOUDY    74  63  68 SE14      30.06F
FORT BELVOIR   PTSUNNY   75  62  62 SE12G20   30.06F
QUANTICO       CLOUDY    74  66  76 SE10      30.06F
FREDERICKSBRG* CLOUDY    77  63  61 SE14      30.03F
STAFFORD*      CLOUDY    76  64  67 SE12G17   30.08F
WARRENTON      CLOUDY    76  57  50 SE8       30.04F
CULPEPER*      CLOUDY    75  59  56 S10G16    30.05F
MANASSAS*      CLOUDY    74  62  66 SE14G24   30.05F
LEESBURG*      PTSUNNY   73  63  68 S13G23    30.06F
WINCHESTER     CLOUDY    68  59  73 S8        30.04F
FRONT ROYAL*   CLOUDY    68  59  73 SE7       30.03F
LURAY*         CLOUDY    70  55  60 SE6G16    30.03F
$$

VAZ048-049-060>072-079>083-231900-
CENTRAL AND SOUTH CENTRAL VIRGINIA

CITY           SKY/WX    TMP DP  RH WIND       PRES   REMARKS
RICHMOND       CLOUDY    76  61  59 SE14      30.05F
CHESTERFIELD*  NOT AVBL
PETERSBURG*    PTSUNNY   75  61  62 SE7       30.06F
HANOVER        CLOUDY    75  63  66 VRB5      30.06F
TAPPAHANNOCK*  CLOUDY    79  57  47 SE12G18   30.07F
QUINTON*       MOCLDY    75  63  66 SE13G21   30.05F
CHARLOTTSVILLE CLOUDY    72  60  66 S9        30.04F
GORDONSVILLE*  CLOUDY    71  62  73 S5        30.03F
ORANGE*        CLOUDY    72  61  68 SE6       30.04F
LOUISA*        CLOUDY    72  61  68 SE7       30.04F
BUMPASS*       CLOUDY    73  63  70 SE5G21    30.04F
FARMVILLE*     CLOUDY    75  64  67 SE12G22   30.01F
CREWE*         FAIR      75  63  64 S13G24    30.04F
FORT PICKETT*  MOCLDY    77  63  61 S12G17    30.05F
CHASE CITY*    CLOUDY    74  65  74 SE10G22   30.02F
CLARKSVILLE*   CLOUDY    73  64  73 E8        30.01F
SOUTH HILL*    PTSUNNY   76  65  70 S8        30.09F
LAWRENCEVILLE* FAIR      77  63  63 SE7       30.04F
EMPORIA*       PTSUNNY   79  63  57 E12       30.06F
$$

VAZ088>098-231900-
SOUTHEAST VIRGINIA

CITY           SKY/WX    TMP DP  RH WIND       PRES   REMARKS
NORFOLK        PTSUNNY   80  61  52 SE14G22   30.08F
VIRGINIA BEACH PTSUNNY   78  61  55 S13G21    30.08F
NORFOLK NAVAL  CLOUDY    79  60  52 SE12G21   30.09F
WEST POINT*    CLOUDY    78  63  60 SE14G23   30.08F
SALUDA*        FAIR      77  65  65 S10G21    30.08F
NEWPORT NEWS   LGT RAIN  79  60  52 S14G21    30.07
LANGLEY AFB    PTSUNNY   79  62  56 S9        30.07F
FORT EUSTIS    MOSUNNY   80  62  54 SE10      30.04F
WILLIAMSBURG*  MOSUNNY   81  64  57 SE14      30.07F
HR EXEC AP*    NOT AVBL
FRANKLIN*      CLOUDY    78  62  56 S14       30.07F
US460-WAKEFLD  MOSUNNY   78  62  57 VRB7      30.06F
$$

VAZ020-022-025-037-045-231900-
WEST CENTRAL AND SOUTHWEST VIRGINIA

CITY           SKY/WX    TMP DP  RH WIND       PRES   REMARKS
STAUNTON*      CLOUDY    65  59  81 SE9       30.05F
WAYNESBORO*    CLOUDY    61  61  99 E10G18    30.03F
HOT SPRINGS VA HVY RAIN  54  54 100 E5G18     30.02F VSB<1/4
LYNCHBURG      CLOUDY    66  64  93 SE16G22   29.99F
DANVILLE       CLOUDY    72  65  78 SE10      29.98F
SOUTH BOSTON*  CLOUDY    72  64  75 SE13G20   30.00F
MARTINSVILLE   CLOUDY    68  65  90 S8        29.96F
ROANOKE        LGT RAIN  64  64 100 SE15G22   29.96F FOG
BLACKSBURG     DRIZZLE   63  63 100 E9        29.96F
DUBLIN*        LGT RAIN  64  64 100 E10       29.93F
MARION*        LGT RAIN  65  61  87 E7        29.89F
HILLSVILLE*    DRIZZLE   64  60  87 S9G30     29.90F
RICHLANDS*     HVY RAIN  64  55  72 SW7       29.86F
WISE*          RAIN      55  55 100 SW9G17    29.94R
ABINGDON*      RAIN      65  63  92 SW6       29.88R
$$

MDZ021>025-VAZ099-100-231900-
SOUTHERN MARYLAND AND THE DELMARVA PENINSULA

CITY           SKY/WX    TMP DP  RH WIND       PRES   REMARKS
PATUXENT RIVER CLOUDY    74  65  73 SE12      30.09F
BAY BRIDGE APT PTSUNNY   77  64  65 SE12G20   30.10F
LEONARDTOWN    NOT AVBL
DOVER          PTSUNNY   75  66  73 SE16      30.12F
GEORGETOWN     CLOUDY    77  64  64 SE14      30.13F
EASTON         PTSUNNY   79  63  57 S15G22    30.14F
CAMBRIDGE      CLOUDY    77  63  61 MISG      30.10F
SALISBURY      CLOUDY    77  65  66 S10G18    30.12F
OCEAN CITY     CLOUDY    73  67  81 SE9       30.15F
WALLOPS ISLAND PTSUNNY   74  68  81 SE12      30.12F
ACCOMACK*      MOSUNNY   77  64  64 SE13G18   30.10F
$$

NCZ012>017-030>032-231900-
NORTH CENTRAL AND EASTERN NORTH CAROLINA

CITY           SKY/WX    TMP DP  RH WIND       PRES   REMARKS
ROANOKE RAPIDS MOCLDY    77  64  65 S9G16     30.05F
RALEIGH        CLOUDY    76  64  66 S10       30.01F
ELIZABETH CITY PTSUNNY   79  66  64 SE14      30.09F
AHOSKIE*       CLOUDY    77  63  62 SE8       30.07F
EDENTON*       PTSUNNY   81  66  60 S14G21    30.08F
CURRITUCK*     PTSUNNY   80  63  56 S6G17     30.11F
KILL DEVIL HLS PTSUNNY   76  64  65 SE6       30.11F
MANTEO         CLOUDY   N/A N/A N/A S14       30.11F
CAPE HATTERAS  PTSUNNY   82  67  60 S15G24    30.11F
TARBORO*       NOT AVBL
GOLDSBORO      MOSUNNY   81  60  48 S15G24    30.03F
WASHINGTON     CLOUDY    79  66  65 SE9       30.08F
GREENVILLE     CLOUDY    81  63  54 S13G22    30.07F
NEW BERN       CLOUDY    78  67  68 S13       30.08F
WILMINGTON     PTSUNNY   78  64  61 SE8G20    30.05F
$$

VAZ048-231900-
ELSEWHERE

CITY           SKY/WX    TMP DP  RH WIND       PRES   REMARKS
HARRISBURG PA  PTSUNNY   70  63  78 SE8       30.08F
BALTIMORE      CLOUDY    74  63  68 SE12G18   30.08F
ANNAPOLIS      CLOUDY    73  67  81 SE14      30.09F
ANDREWS AFB    CLOUDY    75  61  61 SE14      30.06F
PHILADELPHIA   CLOUDY    77  64  64 SE13      30.14F
HENDERSON NC   CLOUDY    73  62  68 SE13      30.02F
GREENSBORO     LGT RAIN  70  68  93 S15       29.95F
ROCKY MOUNT    MOSUNNY   81  58  45 SE13G29   30.04F
$$

VAZ100-231900-
MARINE

STATION/POSITION TIME  TEMP    WIND        PRES    WAVE   SWELL
                       AIR SEA DIR/SP/G            HT/PER HT/PER
                 (UTC) (F)     (DEG/KT/KT) (MB)    (FT/S) (FT/S)
BRANDYWINE LGT   1736   70     150/ 15/ 18 1021.5F
CAPE MAY NJ      1742   71 67  140/ 12/ 16 1020.6F
LEWES DE         1736   71 67  160/  9/ 15 1020.9F
15NM E FENWICK I 1750   69 68  120/ 16/ 17 1021.3F   3/ 9   2/ 9
OCEAN-CITY-INLET 1736   72 68  160/  8/ 12 1021.5F
WACHAPREAGUE VA  1736   73 70  150/ 10/ 13 1020.0F
THOMAS POINT MD  1800   72 68  140/ 12/ 14   N/A
GOOSES REEF MD   1800   72 69  150/ 12/ 14 1022.9    2/ 3
COVE POINT MD    1736   71     160/ 16/ 18 1020.0F
SOLOMONS ISLAND  1736   72 70  140/ 13/ 18 1018.8F
BISHOPS HEAD MD  1736   72 70  140/ 11/ 12 1020.0F
PINEY POINT MD   1724          140/ 16/ 18   N/A
POTOMAC MD       1800   71 70  130/ 10/ 14 1018.3    1/ 2
CAMBRIDGE MD     1736   77 69              1020.4F
LEWISETTA VA     1736   74 69  150/ 15/ 19 1018.8F
RAPPAHANNOCK LGT 1736          130/ 15/ 18 1019.9F
STINGRAY PT      1800   72 69  170/ 12/ 14 1019.0    1/ 2
YORK RVR RNG VA  1736   72     140/ 15/ 17 1019.2F
YORKTOWN VA      1736   76 69  130/ 10/ 13 1018.2F
JAMESTOWN VA     1800      70  140/ 14/ 16   N/A
DOMINION TERM VA 1736   74     150/  9/ 12 1018.7F
KIPTOPEKE VA     1736      69  160/ 14/ 17   N/A
CAPE HENRY VA    1736   74     140/ 14/ 19   N/A
WILLOUBY STN VA  1736   77     150/ 14/ 16 1018.4F
S CRANEY ISL VA  1736   77     170/ 14/ 18 1018.5F
CAPE HENRY BUOY  1800      71                N/A     3/10
1ST LANDING BUOY 1800   73 70              1018.5    2/ 2
CAPE CHARLES BUO 1751      71                N/A     2/ 9
64NM E OF VA BCH 1750   73 69  160/ 12/ 14 1020.8F   4/ 6   2/ 9
DUCK PIER NC     1736   74 70  120/ 12/ 13 1019.4F
44056 DUCK FRF   1800      71                N/A     2/ 9
OREGON INLET NC  1736   76 71  120/  8/ 13 1019.8F
HATTERAS NC      1736   78 73  160/ 16/ 19 1019.4F
DIAMOND SHLS NC  1750   78 81  160/ 21/ 25 1019.1F   5/ 5   2/ 9
CAPE LOOKOUT NC  1800   76     160/ 12/ 13 1018.5F
$$



USA.gov is the U.S. government's official web portal to all federal, state and local government web resources and services.